Time,TemperatureF,DewpointF,PressureIn,WindDirection,WindDirectionDegrees,WindSpeedMPH,WindSpeedGustMPH,Humidity,HourlyPrecipIn,Conditions,Clouds,dailyrainin,SoftwareType,DateUTC
2013-03-15 00:00:00,25.5,13.2,29.95,West,270,3.5,3.5,59,0.00,CLR,,0.00,WeatherDisplay:10.37,2013-03-15 04:00:00,
2013-03-15 00:05:00,25.3,13.4,29.94,SW,225,1.1,0.0,60,0.00,CLR,,0.00,WeatherDisplay:10.37,2013-03-15 04:05:00,
2013-03-15 00:10:00,25.2,13.6,29.94,SW,225,1.1,1.1,61,0.00,CLR,,0.00,WeatherDisplay:10.37,2013-03-15 04:10:00,
2013-03-15 00:15:00,25.0,13.4,29.94,NW,315,1.1,0.0,61,0.00,CLR,,0.00,WeatherDisplay:10.37,2013-03-15 04:15:00,
2013-03-15 00:20:00,25.0,13.8,29.94,SW,225,1.1,1.1,62,0.00,CLR,,0.00,WeatherDisplay:10.37,2013-03-15 04:20:00,
2013-03-15 00:25:00,25.0,13.8,29.94,SW,225,1.1,0.0,62,0.00,CLR,,0.00,WeatherDisplay:10.37,2013-03-15 04:25:00,
2013-03-15 00:30:00,25.0,13.8,29.94,SW,225,3.5,3.5,62,0.00,CLR,,0.00,WeatherDisplay:10.37,2013-03-15 04:30:00,
2013-03-15 00:35:00,25.0,13.8,29.94,West,270,2.3,0.0,62,0.00,CLR,,0.00,WeatherDisplay:10.37,2013-03-15 04:35:00,
2013-03-15 00:40:00,25.0,13.8,29.94,SE,135,2.3,2.3,62,0.00,CLR,,0.00,WeatherDisplay:10.37,2013-03-15 04:40:00,
2013-03-15 00:45:00,25.0,13.8,29.94,NW,315,3.5,0.0,62,0.00,CLR,,0.00,WeatherDisplay:10.37,2013-03-15 04:45:00,
2013-03-15 00:50:00,25.0,13.8,29.94,NW,315,0.0,0.0,62,0.00,CLR,,0.00,WeatherDisplay:10.37,2013-03-15 04:50:00,
2013-03-15 00:55:00,24.8,13.6,29.94,South,180,1.1,0.0,62,0.00,CLR,,0.00,WeatherDisplay:10.37,2013-03-15 04:55:00,
2013-03-15 01:00:00,25.0,14.2,29.94,South,180,1.1,0.0,63,0.00,CLR,,0.00,WeatherDisplay:10.37,2013-03-15 05:00:00,
2013-03-15 01:05:00,25.2,14.3,29.93,SW,225,2.3,2.3,63,0.00,CLR,,0.00,WeatherDisplay:10.37,2013-03-15 05:05:00,
2013-03-15 01:10:00,25.5,15.0,29.93,SW,225,3.5,3.5,64,0.00,CLR,,0.00,WeatherDisplay:10.37,2013-03-15 05:10:00,
2013-03-15 01:15:00,25.7,15.2,29.93,NW,315,1.1,0.0,64,0.00,CLR,,0.00,WeatherDisplay:10.37,2013-03-15 05:15:00,
2013-03-15 01:20:00,25.9,15.4,29.93,SW,225,3.5,3.5,64,0.00,CLR,,0.00,WeatherDisplay:10.37,2013-03-15 05:20:00,
2013-03-15 01:25:00,26.1,15.5,29.93,SW,225,3.5,3.5,64,0.00,CLR,,0.00,WeatherDisplay:10.37,2013-03-15 05:25:00,
2013-03-15 01:30:00,26.2,15.7,29.93,South,180,1.1,1.1,64,0.00,CLR,,0.00,WeatherDisplay:10.37,2013-03-15 05:30:00,
2013-03-15 01:35:00,26.4,15.9,29.92,SW,225,1.1,1.1,64,0.00,CLR,,0.00,WeatherDisplay:10.37,2013-03-15 05:35:00,
2013-03-15 01:40:00,26.8,15.9,29.92,SW,225,3.5,3.5,63,0.00,CLR,,0.00,WeatherDisplay:10.37,2013-03-15 05:40:00,
2013-03-15 01:45:00,27.1,16.6,29.92,SW,225,5.8,5.8,64,0.00,CLR,,0.00,WeatherDisplay:10.37,2013-03-15 05:45:00,
2013-03-15 01:50:00,27.3,16.7,29.92,SW,225,4.6,4.6,64,0.00,CLR,,0.00,WeatherDisplay:10.37,2013-03-15 05:50:00,
2013-03-15 01:55:00,27.5,16.9,29.92,SW,225,3.5,3.5,64,0.00,CLR,,0.00,WeatherDisplay:10.37,2013-03-15 05:55:00,
2013-03-15 02:00:00,27.7,17.1,29.91,SW,225,4.6,4.6,64,0.00,CLR,,0.00,WeatherDisplay:10.37,2013-03-15 06:00:00,
2013-03-15 02:05:00,27.9,17.6,29.91,SW,225,5.8,5.8,65,0.00,CLR,,0.00,WeatherDisplay:10.37,2013-03-15 06:05:00,
2013-03-15 02:10:00,27.9,17.6,29.91,NW,315,2.3,2.3,65,0.00,CLR,,0.00,WeatherDisplay:10.37,2013-03-15 06:10:00,
2013-03-15 02:15:00,27.9,18.0,29.90,SW,225,4.6,4.6,66,0.00,CLR,,0.00,WeatherDisplay:10.37,2013-03-15 06:15:00,
2013-03-15 02:20:00,28.2,18.7,29.90,SW,225,4.6,4.6,67,0.00,CLR,,0.00,WeatherDisplay:10.37,2013-03-15 06:20:00,
2013-03-15 02:25:00,28.4,20.5,29.90,South,180,4.6,4.6,72,0.00,CLR,,0.00,WeatherDisplay:10.37,2013-03-15 06:25:00,
2013-03-15 02:30:00,28.6,21.0,29.90,NW,315,2.3,2.3,73,0.00,CLR,,0.00,WeatherDisplay:10.37,2013-03-15 06:30:00,
2013-03-15 02:35:00,28.6,21.3,29.89,SW,225,5.8,5.8,74,0.00,CLR,,0.00,WeatherDisplay:10.37,2013-03-15 06:35:00,
2013-03-15 02:40:00,28.8,21.8,29.89,SW,225,4.6,4.6,75,0.00,CLR,,0.00,WeatherDisplay:10.37,2013-03-15 06:40:00,
2013-03-15 02:45:00,29.1,22.5,29.89,South,180,5.8,5.8,76,0.00,CLR,,0.00,WeatherDisplay:10.37,2013-03-15 06:45:00,
2013-03-15 02:50:00,29.3,22.7,29.89,South,180,6.9,6.9,76,0.00,CLR,,0.00,WeatherDisplay:10.37,2013-03-15 06:50:00,
2013-03-15 02:55:00,29.3,23.0,29.88,SW,225,5.8,5.8,77,0.00,CLR,,0.00,WeatherDisplay:10.37,2013-03-15 06:55:00,
2013-03-15 03:00:00,29.5,23.2,29.88,SW,225,6.9,6.9,77,0.00,CLR,,0.00,WeatherDisplay:10.37,2013-03-15 07:00:00,
2013-03-15 03:05:00,29.5,23.2,29.88,South,180,6.9,6.9,77,0.00,CLR,,0.00,WeatherDisplay:10.37,2013-03-15 07:05:00,
2013-03-15 03:10:00,29.7,23.6,29.87,SW,225,8.1,8.1,78,0.00,CLR,,0.00,WeatherDisplay:10.37,2013-03-15 07:10:00,
2013-03-15 03:16:00,29.5,23.8,29.87,SW,225,4.6,4.6,79,0.00,CLR,,0.00,WeatherDisplay:10.37,2013-03-15 07:16:00,
2013-03-15 07:16:00,33.4,26.0,29.74,South,180,10.4,10.4,74,0.00,CLR,,0.00,WeatherDisplay:10.37,2013-03-15 11:16:00,
2013-03-15 07:21:00,33.3,25.5,29.74,South,180,5.8,5.8,73,0.00,CLR,,0.00,WeatherDisplay:10.37,2013-03-15 11:21:00,
2013-03-15 07:26:00,33.3,25.2,29.73,West,270,12.7,12.7,72,0.00,CLR,,0.00,WeatherDisplay:10.37,2013-03-15 11:26:00,
2013-03-15 07:31:00,33.3,25.2,29.73,South,180,10.4,10.4,72,0.00,CLR,,0.00,WeatherDisplay:10.37,2013-03-15 11:31:00,
2013-03-15 07:37:00,33.1,25.4,29.73,South,180,17.3,17.3,73,0.00,CLR,,0.00,WeatherDisplay:10.37,2013-03-15 11:37:00,
2013-03-15 07:42:00,32.9,25.2,29.73,North,0,12.7,12.7,73,0.00,CLR,,0.00,WeatherDisplay:10.37,2013-03-15 11:42:00,
2013-03-15 07:47:00,32.7,25.3,29.73,SW,225,9.2,9.2,74,0.00,CLR,,0.00,WeatherDisplay:10.37,2013-03-15 11:47:00,
2013-03-15 07:52:00,32.5,25.5,29.73,NW,315,11.4,11.4,75,0.00,CLR,,0.00,WeatherDisplay:10.37,2013-03-15 11:52:00,
2013-03-15 07:57:00,32.5,25.5,29.73,South,180,5.8,5.8,75,0.00,CLR,,0.00,WeatherDisplay:10.37,2013-03-15 11:57:00,
2013-03-15 08:02:00,32.4,25.6,29.73,West,270,15.2,15.2,76,0.00,CLR,,0.00,WeatherDisplay:10.37,2013-03-15 12:02:00,
2013-03-15 08:07:00,32.4,26.0,29.73,SW,225,13.8,13.8,77,0.00,CLR,,0.00,WeatherDisplay:10.37,2013-03-15 12:07:00,
2013-03-15 08:12:00,32.4,26.3,29.73,NW,315,8.1,8.1,78,0.00,CLR,,0.00,WeatherDisplay:10.37,2013-03-15 12:12:00,
2013-03-15 08:17:00,32.4,26.3,29.73,SW,225,10.4,10.4,78,0.00,CLR,,0.00,WeatherDisplay:10.37,2013-03-15 12:17:00,
2013-03-15 08:23:00,32.2,26.4,29.73,South,180,5.8,5.8,79,0.00,CLR,,0.00,WeatherDisplay:10.37,2013-03-15 12:23:00,
2013-03-15 08:28:00,32.2,26.4,29.73,SW,225,4.6,4.6,79,0.00,CLR,,0.00,WeatherDisplay:10.37,2013-03-15 12:28:00,
2013-03-15 08:33:00,32.4,26.9,29.73,North,0,3.5,3.5,80,0.00,CLR,,0.00,WeatherDisplay:10.37,2013-03-15 12:33:00,
2013-03-15 08:38:00,32.4,27.2,29.73,SW,225,13.8,13.8,81,0.00,CLR,,0.00,WeatherDisplay:10.37,2013-03-15 12:38:00,
2013-03-15 08:43:00,32.4,27.2,29.73,SW,225,8.1,8.1,81,0.00,CLR,,0.00,WeatherDisplay:10.37,2013-03-15 12:43:00,
2013-03-15 08:48:00,32.4,27.2,29.73,North,0,9.2,9.2,81,0.00,CLR,,0.00,WeatherDisplay:10.37,2013-03-15 12:48:00,
2013-03-15 08:53:00,32.5,27.7,29.72,West,270,12.7,12.7,82,0.00,CLR,,0.00,WeatherDisplay:10.37,2013-03-15 12:53:00,
2013-03-15 08:58:00,32.5,27.7,29.72,SW,225,9.2,9.2,82,0.00,CLR,,0.00,WeatherDisplay:10.37,2013-03-15 12:58:00,
2013-03-15 09:03:00,32.5,27.4,29.72,SW,225,8.1,8.1,81,0.00,CLR,,0.00,WeatherDisplay:10.37,2013-03-15 13:03:00,
2013-03-15 09:08:00,32.7,27.5,29.72,NNW,338,6.9,6.9,81,0.00,CLR,,0.00,WeatherDisplay:10.37,2013-03-15 13:08:00,
2013-03-15 09:13:00,32.7,27.5,29.72,South,180,10.4,10.4,81,0.00,CLR,,0.00,WeatherDisplay:10.37,2013-03-15 13:13:00,
2013-03-15 09:18:00,32.5,27.4,29.72,East,90,5.8,5.8,81,0.00,CLR,,0.00,WeatherDisplay:10.37,2013-03-15 13:18:00,
2013-03-15 09:23:00,32.5,27.4,29.72,West,270,11.5,11.5,81,0.00,CLR,,0.00,WeatherDisplay:10.37,2013-03-15 13:23:00,
2013-03-15 09:28:00,32.5,27.7,29.72,SW,225,3.5,3.5,82,0.00,CLR,,0.00,WeatherDisplay:10.37,2013-03-15 13:28:00,
2013-03-15 09:33:00,32.5,27.7,29.72,SW,225,5.8,5.8,82,0.00,CLR,,0.00,WeatherDisplay:10.37,2013-03-15 13:33:00,
2013-03-15 09:38:00,32.5,27.7,29.72,NW,315,4.6,4.6,82,0.00,CLR,,0.00,WeatherDisplay:10.37,2013-03-15 13:38:00,
2013-03-15 09:43:00,32.5,28.0,29.72,West,270,10.4,10.4,83,0.00,CLR,,0.00,WeatherDisplay:10.37,2013-03-15 13:43:00,
2013-03-15 09:48:00,32.5,28.0,29.72,NW,315,9.2,9.2,83,0.00,CLR,,0.00,WeatherDisplay:10.37,2013-03-15 13:48:00,
2013-03-15 09:53:00,32.7,28.1,29.72,NNW,338,12.7,12.7,83,0.00,CLR,,0.00,WeatherDisplay:10.37,2013-03-15 13:53:00,
2013-03-15 09:58:00,32.7,28.1,29.72,NNW,338,5.8,5.8,83,0.00,CLR,,0.00,WeatherDisplay:10.37,2013-03-15 13:58:00,
2013-03-15 10:03:00,32.7,28.1,29.72,NW,315,5.8,5.8,83,0.00,CLR,,0.00,WeatherDisplay:10.37,2013-03-15 14:03:00,
2013-03-15 10:08:00,32.7,28.1,29.72,SW,225,5.8,5.8,83,0.00,CLR,,0.00,WeatherDisplay:10.37,2013-03-15 14:08:00,
2013-03-15 10:13:00,32.7,28.1,29.72,SW,225,5.8,5.8,83,0.00,CLR,,0.00,WeatherDisplay:10.37,2013-03-15 14:13:00,
2013-03-15 10:18:00,32.7,28.1,29.72,SW,225,10.4,10.4,83,0.00,CLR,,0.00,WeatherDisplay:10.37,2013-03-15 14:18:00,
2013-03-15 10:23:00,32.9,28.3,29.71,West,270,6.9,6.9,83,0.00,CLR,,0.00,WeatherDisplay:10.37,2013-03-15 14:23:00,
2013-03-15 10:28:00,32.9,28.3,29.72,WNW,292,6.9,6.9,83,0.00,CLR,,0.00,WeatherDisplay:10.37,2013-03-15 14:28:00,
2013-03-15 10:33:00,32.9,28.3,29.71,South,180,8.1,8.1,83,0.00,CLR,,0.00,WeatherDisplay:10.37,2013-03-15 14:33:00,
2013-03-15 10:38:00,33.1,28.5,29.71,SE,135,5.8,5.8,83,0.00,CLR,,0.00,WeatherDisplay:10.37,2013-03-15 14:38:00,
2013-03-15 10:43:00,33.1,28.5,29.71,WNW,292,6.9,6.9,83,0.00,CLR,,0.00,WeatherDisplay:10.37,2013-03-15 14:43:00,
2013-03-15 10:48:00,33.3,28.7,29.71,North,0,8.1,8.1,83,0.00,CLR,,0.00,WeatherDisplay:10.37,2013-03-15 14:48:00,
2013-03-15 10:53:00,33.3,28.4,29.70,SW,225,8.1,8.1,82,0.00,CLR,,0.00,WeatherDisplay:10.37,2013-03-15 14:53:00,
2013-03-15 10:58:00,33.4,28.2,29.70,NE,45,5.8,5.8,81,0.00,CLR,,0.00,WeatherDisplay:10.37,2013-03-15 14:58:00,
2013-03-15 11:03:00,33.4,28.2,29.70,West,270,9.2,9.2,81,0.00,CLR,,0.00,WeatherDisplay:10.37,2013-03-15 15:03:00,
2013-03-15 11:08:00,33.6,28.4,29.70,SW,225,12.7,12.7,81,0.00,CLR,,0.00,WeatherDisplay:10.37,2013-03-15 15:08:00,
2013-03-15 11:13:00,33.8,28.3,29.70,NW,315,6.9,6.9,80,0.00,CLR,,0.00,WeatherDisplay:10.37,2013-03-15 15:13:00,
2013-03-15 11:18:00,33.8,28.0,29.70,NW,315,5.8,5.8,79,0.00,CLR,,0.00,WeatherDisplay:10.37,2013-03-15 15:18:00,
2013-03-15 11:24:00,33.8,28.0,29.70,SW,225,5.8,5.8,79,0.00,CLR,,0.00,WeatherDisplay:10.37,2013-03-15 15:24:00,
2013-03-15 11:29:00,33.8,28.0,29.69,South,180,12.7,12.7,79,0.00,CLR,,0.00,WeatherDisplay:10.37,2013-03-15 15:29:00,
2013-03-15 11:34:00,34.0,28.2,29.70,NW,315,9.2,9.2,79,0.00,CLR,,0.00,WeatherDisplay:10.37,2013-03-15 15:34:00,
2013-03-15 11:39:00,34.0,28.2,29.69,South,180,10.4,10.4,79,0.00,CLR,,0.00,WeatherDisplay:10.37,2013-03-15 15:39:00,
2013-03-15 11:44:00,34.2,28.3,29.69,West,270,5.8,5.8,79,0.00,CLR,,0.00,WeatherDisplay:10.37,2013-03-15 15:44:00,
2013-03-15 11:49:00,34.2,28.0,29.69,South,180,5.8,5.8,78,0.00,CLR,,0.00,WeatherDisplay:10.37,2013-03-15 15:49:00,
2013-03-15 11:54:00,34.3,28.2,29.69,NW,315,6.9,6.9,78,0.00,CLR,,0.00,WeatherDisplay:10.37,2013-03-15 15:54:00,
2013-03-15 11:59:00,34.5,28.4,29.69,SW,225,10.4,10.4,78,0.00,CLR,,0.00,WeatherDisplay:10.37,2013-03-15 15:59:00,
2013-03-15 12:04:00,34.5,28.1,29.69,South,180,12.7,12.7,77,0.00,CLR,,0.00,WeatherDisplay:10.37,2013-03-15 16:04:00,
2013-03-15 12:09:00,34.5,28.1,29.69,SW,225,8.1,8.1,77,0.00,CLR,,0.00,WeatherDisplay:10.37,2013-03-15 16:09:00,
2013-03-15 12:14:00,34.5,28.1,29.69,NW,315,8.1,8.1,77,0.00,CLR,,0.00,WeatherDisplay:10.37,2013-03-15 16:14:00,
2013-03-15 12:19:00,34.7,28.2,29.69,North,0,5.8,5.8,77,0.00,CLR,,0.00,WeatherDisplay:10.37,2013-03-15 16:19:00,
2013-03-15 12:24:00,34.7,28.2,29.69,North,0,5.8,5.8,77,0.00,CLR,,0.00,WeatherDisplay:10.37,2013-03-15 16:24:00,
2013-03-15 12:29:00,34.9,28.4,29.69,West,270,5.8,5.8,77,0.00,CLR,,0.00,WeatherDisplay:10.37,2013-03-15 16:29:00,
2013-03-15 12:34:00,34.9,28.4,29.69,SW,225,5.8,5.8,77,0.00,CLR,,0.00,WeatherDisplay:10.37,2013-03-15 16:34:00,
2013-03-15 12:39:00,34.7,28.2,29.69,SW,225,8.1,8.1,77,0.00,CLR,,0.00,WeatherDisplay:10.37,2013-03-15 16:39:00,
2013-03-15 12:44:00,34.7,27.9,29.69,NW,315,5.8,5.8,76,0.00,CLR,,0.00,WeatherDisplay:10.37,2013-03-15 16:44:00,
2013-03-15 12:49:00,34.7,28.2,29.69,SW,225,5.8,5.8,77,0.00,CLR,,0.00,WeatherDisplay:10.37,2013-03-15 16:49:00,
2013-03-15 12:54:00,34.7,28.2,29.69,SW,225,9.2,9.2,77,0.00,CLR,,0.00,WeatherDisplay:10.37,2013-03-15 16:54:00,
2013-03-15 12:59:00,34.5,28.1,29.68,NW,315,5.8,5.8,77,0.00,CLR,,0.00,WeatherDisplay:10.37,2013-03-15 16:59:00,
2013-03-15 13:04:00,34.7,28.2,29.69,SW,225,11.5,11.5,77,0.00,CLR,,0.00,WeatherDisplay:10.37,2013-03-15 17:04:00,
2013-03-15 13:09:00,34.9,28.4,29.69,SW,225,8.1,8.1,77,0.00,CLR,,0.00,WeatherDisplay:10.37,2013-03-15 17:09:00,
2013-03-15 13:14:00,34.9,28.1,29.69,NE,45,10.4,10.4,76,0.00,CLR,,0.00,WeatherDisplay:10.37,2013-03-15 17:14:00,
2013-03-15 13:19:00,34.9,28.1,29.69,East,90,10.4,10.4,76,0.00,CLR,,0.00,WeatherDisplay:10.37,2013-03-15 17:19:00,
2013-03-15 13:24:00,34.9,28.1,29.68,West,270,5.8,5.8,76,0.00,CLR,,0.00,WeatherDisplay:10.37,2013-03-15 17:24:00,
2013-03-15 13:29:00,34.9,28.1,29.68,South,180,10.4,10.4,76,0.00,CLR,,0.00,WeatherDisplay:10.37,2013-03-15 17:29:00,
2013-03-15 13:34:00,34.9,28.1,29.68,South,180,5.8,5.8,76,0.00,CLR,,0.00,WeatherDisplay:10.37,2013-03-15 17:34:00,
2013-03-15 13:39:00,35.1,28.6,29.68,West,270,5.8,5.8,77,0.00,CLR,,0.00,WeatherDisplay:10.37,2013-03-15 17:39:00,
2013-03-15 13:45:00,34.9,28.7,29.68,South,180,12.7,12.7,78,0.00,CLR,,0.00,WeatherDisplay:10.37,2013-03-15 17:45:00,
2013-03-15 13:50:00,34.9,28.7,29.68,SW,225,12.7,12.7,78,0.00,CLR,,0.00,WeatherDisplay:10.37,2013-03-15 17:50:00,
2013-03-15 13:55:00,34.5,28.7,29.67,NNE,14,8.1,8.1,79,0.00,CLR,,0.00,WeatherDisplay:10.37,2013-03-15 17:55:00,
2013-03-15 14:00:00,34.5,29.0,29.68,South,180,6.9,6.9,80,0.00,CLR,,0.00,WeatherDisplay:10.37,2013-03-15 18:00:00,
2013-03-15 14:05:00,34.5,29.3,29.68,NW,315,8.1,8.1,81,0.00,CLR,,0.00,WeatherDisplay:10.37,2013-03-15 18:05:00,
2013-03-15 14:10:00,34.3,29.1,29.68,SW,225,8.1,8.1,81,0.00,CLR,,0.00,WeatherDisplay:10.37,2013-03-15 18:10:00,
2013-03-15 14:15:00,34.3,29.1,29.68,West,270,10.4,10.4,81,0.00,CLR,,0.00,WeatherDisplay:10.37,2013-03-15 18:15:00,
2013-03-15 14:20:00,34.3,29.1,29.68,NW,315,5.8,5.8,81,0.00,CLR,,0.00,WeatherDisplay:10.37,2013-03-15 18:20:00,
2013-03-15 14:25:00,34.3,29.1,29.68,West,270,8.1,8.1,81,0.00,CLR,,0.00,WeatherDisplay:10.37,2013-03-15 18:25:00,
2013-03-15 14:30:00,34.3,29.4,29.68,NW,315,5.8,5.8,82,0.00,CLR,,0.00,WeatherDisplay:10.37,2013-03-15 18:30:00,
2013-03-15 14:35:00,34.9,29.9,29.67,NW,315,5.8,5.8,82,0.00,CLR,,0.00,WeatherDisplay:10.37,2013-03-15 18:35:00,
2013-03-15 14:40:00,35.1,30.1,29.67,West,270,10.4,10.4,82,0.00,CLR,,0.00,WeatherDisplay:10.37,2013-03-15 18:40:00,
2013-03-15 14:45:00,35.8,30.5,29.67,SW,225,8.1,8.1,81,0.00,CLR,,0.00,WeatherDisplay:10.37,2013-03-15 18:45:00,
2013-03-15 14:50:00,36.9,31.3,29.67,NW,315,5.8,5.8,80,0.00,CLR,,0.00,WeatherDisplay:10.37,2013-03-15 18:50:00,
2013-03-15 14:55:00,37.2,31.3,29.67,South,180,11.5,11.5,79,0.00,CLR,,0.00,WeatherDisplay:10.37,2013-03-15 18:55:00,
2013-03-15 15:00:00,37.0,30.8,29.66,SW,225,12.7,12.7,78,0.00,CLR,,0.00,WeatherDisplay:10.37,2013-03-15 19:00:00,
2013-03-15 15:05:00,36.9,30.3,29.66,SW,225,12.7,12.7,77,0.00,CLR,,0.00,WeatherDisplay:10.37,2013-03-15 19:05:00,
2013-03-15 15:10:00,37.2,30.7,29.66,West,270,5.8,5.8,77,0.00,CLR,,0.00,WeatherDisplay:10.37,2013-03-15 19:10:00,
2013-03-15 15:15:00,37.6,32.3,29.66,South,180,10.4,10.4,81,0.00,CLR,,0.00,WeatherDisplay:10.37,2013-03-15 19:15:00,
2013-03-15 15:20:00,38.3,32.7,29.66,South,180,4.6,4.6,80,0.00,CLR,,0.00,WeatherDisplay:10.37,2013-03-15 19:20:00,
2013-03-15 15:25:00,38.3,32.4,29.66,West,270,10.4,10.4,79,0.00,CLR,,0.00,WeatherDisplay:10.37,2013-03-15 19:25:00,
2013-03-15 15:30:00,38.8,32.9,29.66,SW,225,10.4,10.4,79,0.00,CLR,,0.00,WeatherDisplay:10.37,2013-03-15 19:30:00,
2013-03-15 15:35:00,39.2,32.6,29.67,NW,315,12.7,12.7,77,0.00,CLR,,0.00,WeatherDisplay:10.37,2013-03-15 19:35:00,
2013-03-15 15:40:00,39.6,32.9,29.67,South,180,10.4,10.4,77,0.00,CLR,,0.00,WeatherDisplay:10.37,2013-03-15 19:40:00,
2013-03-15 15:45:00,39.2,32.3,29.67,SW,225,12.7,12.7,76,0.00,CLR,,0.00,WeatherDisplay:10.37,2013-03-15 19:45:00,
2013-03-15 15:50:00,38.8,32.2,29.67,NW,315,6.9,6.9,77,0.00,CLR,,0.00,WeatherDisplay:10.37,2013-03-15 19:50:00,
2013-03-15 15:55:00,39.2,32.3,29.66,West,270,3.5,3.5,76,0.00,CLR,,0.00,WeatherDisplay:10.37,2013-03-15 19:55:00,
2013-03-15 16:00:00,40.1,33.1,29.66,NW,315,12.7,12.7,76,0.00,CLR,,0.00,WeatherDisplay:10.37,2013-03-15 20:00:00,
2013-03-15 16:05:00,39.2,31.9,29.66,West,270,10.4,10.4,75,0.00,CLR,,0.00,WeatherDisplay:10.37,2013-03-15 20:05:00,
2013-03-15 16:10:00,38.8,31.9,29.67,West,270,10.4,10.4,76,0.00,CLR,,0.00,WeatherDisplay:10.37,2013-03-15 20:10:00,
2013-03-15 16:15:00,38.5,31.6,29.67,SW,225,5.8,6.9,76,0.00,CLR,,0.00,WeatherDisplay:10.37,2013-03-15 20:15:00,
2013-03-15 16:20:00,37.8,30.9,29.67,WNW,292,8.1,8.1,76,0.00,CLR,,0.00,WeatherDisplay:10.37,2013-03-15 20:20:00,
2013-03-15 16:25:00,38.5,31.9,29.67,NW,315,10.4,10.4,77,0.00,CLR,,0.00,WeatherDisplay:10.37,2013-03-15 20:25:00,
2013-03-15 16:30:00,38.8,32.2,29.67,West,270,8.1,8.1,77,0.00,CLR,,0.00,WeatherDisplay:10.37,2013-03-15 20:30:00,
2013-03-15 16:35:00,39.2,31.9,29.67,SW,225,8.1,8.1,75,0.00,CLR,,0.00,WeatherDisplay:10.37,2013-03-15 20:35:00,
2013-03-15 16:40:00,38.7,31.7,29.67,SW,225,15.0,15.0,76,0.00,CLR,,0.00,WeatherDisplay:10.37,2013-03-15 20:40:00,
2013-03-15 16:45:00,37.9,31.0,29.67,West,270,13.8,13.8,76,0.00,CLR,,0.00,WeatherDisplay:10.37,2013-03-15 20:45:00,
2013-03-15 16:50:00,37.8,30.9,29.67,SW,225,5.8,5.8,76,0.00,CLR,,0.00,WeatherDisplay:10.37,2013-03-15 20:50:00,
2013-03-15 16:55:00,37.8,30.9,29.67,SSW,202,10.4,10.4,76,0.00,CLR,,0.00,WeatherDisplay:10.37,2013-03-15 20:55:00,
2013-03-15 17:00:00,37.8,30.9,29.67,SW,225,8.1,8.1,76,0.00,CLR,,0.00,WeatherDisplay:10.37,2013-03-15 21:00:00,
2013-03-15 17:05:00,37.4,30.5,29.67,SW,225,5.8,6.0,76,0.00,CLR,,0.00,WeatherDisplay:10.37,2013-03-15 21:05:00,
2013-03-15 17:10:00,37.2,29.4,29.67,South,180,5.8,5.8,73,0.00,CLR,,0.00,WeatherDisplay:10.37,2013-03-15 21:10:00,
2013-03-15 17:15:00,37.4,30.8,29.67,SW,225,9.2,9.2,77,0.00,CLR,,0.00,WeatherDisplay:10.37,2013-03-15 21:15:00,
2013-03-15 17:20:00,37.4,30.8,29.67,NE,45,8.1,8.1,77,0.00,CLR,,0.00,WeatherDisplay:10.37,2013-03-15 21:20:00,
2013-03-15 17:25:00,37.2,29.4,29.67,SE,135,6.9,6.9,73,0.00,CLR,,0.00,WeatherDisplay:10.37,2013-03-15 21:25:00,
2013-03-15 17:30:00,37.4,30.8,29.67,SW,225,10.4,10.4,77,0.00,CLR,,0.00,WeatherDisplay:10.37,2013-03-15 21:30:00,
2013-03-15 17:35:00,37.9,31.4,29.67,South,180,10.7,10.7,77,0.00,CLR,,0.00,WeatherDisplay:10.37,2013-03-15 21:35:00,
2013-03-15 17:40:00,37.9,31.4,29.68,SSW,202,8.1,8.1,77,0.00,CLR,,0.00,WeatherDisplay:10.37,2013-03-15 21:40:00,
2013-03-15 17:45:00,38.3,31.4,29.68,NE,45,10.4,10.4,76,0.00,CLR,,0.00,WeatherDisplay:10.37,2013-03-15 21:45:00,
2013-03-15 17:50:00,38.5,31.6,29.68,West,270,12.7,12.7,76,0.00,CLR,,0.00,WeatherDisplay:10.37,2013-03-15 21:50:00,
2013-03-15 17:55:00,39.2,31.9,29.68,SW,225,11.5,11.5,75,0.00,CLR,,0.00,WeatherDisplay:10.37,2013-03-15 21:55:00,
2013-03-15 18:00:00,39.6,32.3,29.69,South,180,8.1,8.1,75,0.00,CLR,,0.00,WeatherDisplay:10.37,2013-03-15 22:00:00,
2013-03-15 18:05:00,39.2,31.9,29.69,SW,225,4.6,4.6,75,0.00,CLR,,0.00,WeatherDisplay:10.37,2013-03-15 22:05:00,
2013-03-15 18:10:00,39.7,32.5,29.69,SW,225,6.9,6.9,75,0.00,CLR,,0.00,WeatherDisplay:10.37,2013-03-15 22:10:00,
2013-03-15 18:15:00,39.4,32.1,29.69,West,270,3.5,3.5,75,0.00,CLR,,0.00,WeatherDisplay:10.37,2013-03-15 22:15:00,
2013-03-15 18:20:00,38.5,31.2,29.69,West,270,4.5,4.5,75,0.00,CLR,,0.00,WeatherDisplay:10.37,2013-03-15 22:20:00,
2013-03-15 18:25:00,38.3,31.4,29.69,East,90,5.8,5.8,76,0.00,CLR,,0.00,WeatherDisplay:10.37,2013-03-15 22:25:00,
2013-03-15 18:30:00,38.1,31.2,29.70,East,90,3.5,3.5,76,0.00,CLR,,0.00,WeatherDisplay:10.37,2013-03-15 22:30:00,
2013-03-15 18:35:00,37.9,31.4,29.70,NW,315,3.5,3.5,77,0.00,CLR,,0.00,WeatherDisplay:10.37,2013-03-15 22:35:00,
2013-03-15 18:40:00,37.4,30.8,29.70,West,270,3.5,3.5,77,0.00,CLR,,0.00,WeatherDisplay:10.37,2013-03-15 22:40:00,
2013-03-15 18:45:00,37.2,29.4,29.70,North,0,2.3,2.3,73,0.00,CLR,,0.00,WeatherDisplay:10.37,2013-03-15 22:45:00,
2013-03-15 18:50:00,36.9,28.7,29.70,NE,45,3.5,0.0,72,0.00,CLR,,0.00,WeatherDisplay:10.37,2013-03-15 22:50:00,
2013-03-15 18:55:00,36.9,28.0,29.70,NW,315,2.3,3.8,70,0.00,CLR,,0.00,WeatherDisplay:10.37,2013-03-15 22:55:00,
2013-03-15 19:00:00,36.5,25.5,29.70,NW,315,3.5,3.5,64,0.00,CLR,,0.00,WeatherDisplay:10.37,2013-03-15 23:00:00,
2013-03-15 19:05:00,36.3,24.5,29.71,West,270,5.8,5.8,62,0.00,CLR,,0.00,WeatherDisplay:10.37,2013-03-15 23:05:00,
2013-03-15 19:10:00,36.1,23.6,29.71,NW,315,3.5,3.5,60,0.00,CLR,,0.00,WeatherDisplay:10.37,2013-03-15 23:10:00,
2013-03-15 19:15:00,35.8,22.4,29.71,NW,315,3.5,3.5,58,0.00,CLR,,0.00,WeatherDisplay:10.37,2013-03-15 23:15:00,
2013-03-15 19:20:00,35.6,22.3,29.72,WNW,292,4.6,4.6,58,0.00,CLR,,0.00,WeatherDisplay:10.37,2013-03-15 23:20:00,
2013-03-15 19:25:00,35.2,21.9,29.72,NW,315,3.5,3.5,58,0.00,CLR,,0.00,WeatherDisplay:10.37,2013-03-15 23:25:00,
2013-03-15 19:30:00,35.1,21.8,29.72,North,0,3.5,3.5,58,0.00,CLR,,0.00,WeatherDisplay:10.37,2013-03-15 23:30:00,
2013-03-15 19:36:00,34.7,21.4,29.72,NW,315,3.5,3.5,58,0.00,CLR,,0.00,WeatherDisplay:10.37,2013-03-15 23:36:00,
2013-03-15 19:41:00,34.7,21.0,29.73,West,270,3.5,3.5,57,0.00,CLR,,0.00,WeatherDisplay:10.37,2013-03-15 23:41:00,
2013-03-15 19:46:00,34.5,20.4,29.73,NW,315,5.8,5.8,56,0.00,CLR,,0.00,WeatherDisplay:10.37,2013-03-15 23:46:00,
2013-03-15 19:51:00,34.3,19.8,29.73,NW,315,3.5,3.5,55,0.00,CLR,,0.00,WeatherDisplay:10.37,2013-03-15 23:51:00,
2013-03-15 19:56:00,34.2,19.2,29.73,North,0,3.5,3.5,54,0.00,CLR,,0.00,WeatherDisplay:10.37,2013-03-15 23:56:00,
2013-03-15 20:01:00,34.0,19.1,29.73,West,270,4.6,4.6,54,0.00,CLR,,0.00,WeatherDisplay:10.37,2013-03-16 00:01:00,
2013-03-15 20:06:00,33.8,18.9,29.73,West,270,5.8,5.8,54,0.00,CLR,,0.00,WeatherDisplay:10.37,2013-03-16 00:06:00,
2013-03-15 20:11:00,33.8,18.9,29.73,West,270,4.6,4.6,54,0.00,CLR,,0.00,WeatherDisplay:10.37,2013-03-16 00:11:00,
2013-03-15 20:17:00,33.6,19.2,29.74,West,270,5.8,5.8,55,0.00,CLR,,0.00,WeatherDisplay:10.37,2013-03-16 00:17:00,
2013-03-15 20:22:00,33.6,19.2,29.74,NW,315,3.5,3.5,55,0.00,CLR,,0.00,WeatherDisplay:10.37,2013-03-16 00:22:00,
2013-03-15 20:27:00,33.6,19.2,29.74,NW,315,5.8,5.8,55,0.00,CLR,,0.00,WeatherDisplay:10.37,2013-03-16 00:27:00,
2013-03-15 20:32:00,33.6,18.7,29.74,NW,315,3.5,3.5,54,0.00,CLR,,0.00,WeatherDisplay:10.37,2013-03-16 00:32:00,
2013-03-15 20:37:00,33.4,19.0,29.74,NW,315,3.5,3.5,55,0.00,CLR,,0.00,WeatherDisplay:10.37,2013-03-16 00:37:00,
2013-03-15 20:42:00,33.4,19.0,29.75,NW,315,8.1,8.1,55,0.00,CLR,,0.00,WeatherDisplay:10.37,2013-03-16 00:42:00,
2013-03-15 20:47:00,33.4,19.0,29.74,West,270,6.9,6.9,55,0.00,CLR,,0.00,WeatherDisplay:10.37,2013-03-16 00:47:00,
2013-03-15 20:52:00,33.3,18.8,29.75,NW,315,6.9,6.9,55,0.00,CLR,,0.00,WeatherDisplay:10.37,2013-03-16 00:52:00,
2013-03-15 20:57:00,33.3,18.8,29.75,NW,315,4.6,4.6,55,0.00,CLR,,0.00,WeatherDisplay:10.37,2013-03-16 00:57:00,
2013-03-15 21:02:00,33.1,18.7,29.75,NW,315,3.8,3.8,55,0.00,CLR,,0.00,WeatherDisplay:10.37,2013-03-16 01:02:00,
2013-03-15 21:07:00,32.9,18.9,29.75,NW,315,4.6,5.4,56,0.00,CLR,,0.00,WeatherDisplay:10.37,2013-03-16 01:07:00,
2013-03-15 21:12:00,32.9,18.9,29.76,West,270,6.9,6.9,56,0.00,CLR,,0.00,WeatherDisplay:10.37,2013-03-16 01:12:00,
2013-03-15 21:17:00,32.7,19.1,29.75,NW,315,6.9,6.9,57,0.00,CLR,,0.00,WeatherDisplay:10.37,2013-03-16 01:17:00,
2013-03-15 21:22:00,32.7,19.1,29.76,NW,315,10.4,10.4,57,0.00,CLR,,0.00,WeatherDisplay:10.37,2013-03-16 01:22:00,
2013-03-15 21:27:00,32.5,19.4,29.76,West,270,6.9,6.9,58,0.00,CLR,,0.00,WeatherDisplay:10.37,2013-03-16 01:27:00,
2013-03-15 21:32:00,32.4,19.2,29.75,NW,315,2.3,3.1,58,0.00,CLR,,0.00,WeatherDisplay:10.37,2013-03-16 01:32:00,
2013-03-15 21:38:00,32.2,19.0,29.76,NW,315,4.6,4.6,58,0.00,CLR,,0.00,WeatherDisplay:10.37,2013-03-16 01:38:00,
2013-03-15 21:43:00,32.0,19.3,29.76,NE,45,4.6,4.6,59,0.00,CLR,,0.00,WeatherDisplay:10.37,2013-03-16 01:43:00,
2013-03-15 21:48:00,32.0,19.3,29.76,NW,315,3.5,3.5,59,0.00,CLR,,0.00,WeatherDisplay:10.37,2013-03-16 01:48:00,
2013-03-15 21:53:00,31.8,19.5,29.76,NW,315,5.8,5.8,60,0.00,CLR,,0.00,WeatherDisplay:10.37,2013-03-16 01:53:00,
2013-03-15 21:58:00,31.8,19.5,29.76,NW,315,5.8,5.8,60,0.00,CLR,,0.00,WeatherDisplay:10.37,2013-03-16 01:58:00,
2013-03-15 22:03:00,31.8,19.1,29.77,NW,315,3.8,3.8,59,0.00,CLR,,0.00,WeatherDisplay:10.37,2013-03-16 02:03:00,
2013-03-15 22:08:00,31.6,19.3,29.77,NW,315,2.3,2.3,60,0.00,CLR,,0.00,WeatherDisplay:10.37,2013-03-16 02:08:00,
2013-03-15 22:13:00,31.3,19.0,29.77,NW,315,4.6,4.6,60,0.00,CLR,,0.00,WeatherDisplay:10.37,2013-03-16 02:13:00,
2013-03-15 22:18:00,31.3,19.0,29.77,NW,315,2.3,2.3,60,0.00,CLR,,0.00,WeatherDisplay:10.37,2013-03-16 02:18:00,
2013-03-15 22:23:00,30.9,18.7,29.77,NW,315,3.5,3.5,60,0.00,CLR,,0.00,WeatherDisplay:10.37,2013-03-16 02:23:00,
2013-03-15 22:28:00,30.9,19.0,29.77,NE,45,3.5,3.5,61,0.00,CLR,,0.00,WeatherDisplay:10.37,2013-03-16 02:28:00,
2013-03-15 22:33:00,30.7,19.2,29.77,NW,315,3.5,3.5,62,0.00,CLR,,0.00,WeatherDisplay:10.37,2013-03-16 02:33:00,
2013-03-15 22:38:00,30.6,19.1,29.77,NW,315,3.5,3.5,62,0.00,CLR,,0.00,WeatherDisplay:10.37,2013-03-16 02:38:00,
2013-03-15 22:43:00,30.4,19.3,29.77,NW,315,2.3,2.3,63,0.00,CLR,,0.00,WeatherDisplay:10.37,2013-03-16 02:43:00,
2013-03-15 22:48:00,30.2,19.5,29.77,NW,315,4.6,4.6,64,0.00,CLR,,0.00,WeatherDisplay:10.37,2013-03-16 02:48:00,
2013-03-15 22:53:00,30.4,19.6,29.77,NW,315,3.5,3.5,64,0.00,CLR,,0.00,WeatherDisplay:10.37,2013-03-16 02:53:00,
2013-03-15 22:58:00,30.2,19.5,29.77,North,0,5.8,5.8,64,0.00,CLR,,0.00,WeatherDisplay:10.37,2013-03-16 02:58:00,
2013-03-15 23:03:00,30.2,19.1,29.77,NW,315,3.5,3.5,63,0.00,CLR,,0.00,WeatherDisplay:10.37,2013-03-16 03:03:00,
2013-03-15 23:08:00,30.0,19.3,29.77,NW,315,5.8,5.8,64,0.00,CLR,,0.00,WeatherDisplay:10.37,2013-03-16 03:08:00,
2013-03-15 23:13:00,30.0,18.9,29.77,NW,315,5.8,5.8,63,0.00,CLR,,0.00,WeatherDisplay:10.37,2013-03-16 03:13:00,
2013-03-15 23:18:00,30.0,18.6,29.77,North,0,5.8,5.8,62,0.00,CLR,,0.00,WeatherDisplay:10.37,2013-03-16 03:18:00,
2013-03-15 23:23:00,30.0,18.2,29.77,North,0,5.8,5.8,61,0.00,CLR,,0.00,WeatherDisplay:10.37,2013-03-16 03:23:00,
2013-03-15 23:28:00,30.0,18.2,29.77,NW,315,5.8,5.8,61,0.00,CLR,,0.00,WeatherDisplay:10.37,2013-03-16 03:28:00,
2013-03-15 23:33:00,30.0,18.2,29.77,NW,315,3.5,3.5,61,0.00,CLR,,0.00,WeatherDisplay:10.37,2013-03-16 03:33:00,
2013-03-15 23:38:00,29.8,18.0,29.77,North,0,3.5,3.8,61,0.00,CLR,,0.00,WeatherDisplay:10.37,2013-03-16 03:38:00,
2013-03-15 23:43:00,29.8,18.4,29.77,NW,315,5.8,5.8,62,0.00,CLR,,0.00,WeatherDisplay:10.37,2013-03-16 03:43:00,
2013-03-15 23:48:00,29.8,18.4,29.77,NW,315,6.9,6.9,62,0.00,CLR,,0.00,WeatherDisplay:10.37,2013-03-16 03:48:00,
2013-03-15 23:53:00,29.8,18.4,29.77,NW,315,3.5,3.5,62,0.00,CLR,,0.00,WeatherDisplay:10.37,2013-03-16 03:53:00,
2013-03-15 23:58:00,29.8,18.4,29.77,NW,315,4.6,4.6,62,0.00,CLR,,0.00,WeatherDisplay:10.37,2013-03-16 03:58:00,